[[{"header":{"parameterUnit":"m.s-1","parameterCategory":1,"la1":30.2991,"la2":30.254,"lo1":-89.0895,"lo2":-89.0444,"dy":0.0017,"dx":0.0017,"nx":28,"ny":28,"refTime":"2025-09-12T03:00:00:Z","depth":0,"parameterNumber":2,"parameterNumberName":"U-component_of_WINDS"},"data":[0,0,0,0,0,0,0,0,0,0,0,0,0,0,0,0,0,0,0,0,0,0,0,0,0,0,0,0,0,0,0,0,0,0,0,0,0,0,0,0,0,0,0,0,0,0,0,0,0,0,0,0,0,0,0,0,0,0,-0.5426,-0.5425,0,-0.539,-0.5389,-0.5389,-0.5337,-0.5336,-0.5335,-0.5335,-0.53,-0.53,-0.53,0,0,0,0,0,0,0,0,0,0,0,0,0,-0.5453,-0.5453,-0.5426,-0.5425,-0.5425,-0.539,-0.5389,-0.5389,-0.5337,-0.5336,-0.5335,-0.5334,-0.53,-0.53,-0.53,0,0,0,0,0,0,0,0,0,0,0,0,0,-0.5432,-0.5453,-0.5426,-0.5395,-0.5392,-0.539,-0.5389,-0.5389,-0.5338,-0.5336,-0.5335,-0.5334,-0.53,-0.53,-0.53,-0.5327,0,0,-0.53,-0.53,0,0,0,0,0,0,0,0,-0.5433,-0.5431,-0.54,-0.5397,-0.5393,-0.5366,-0.5386,-0.5368,-0.5338,-0.5358,-0.5334,-0.5333,-0.5324,-0.5322,-0.5318,-0.5325,-0.5323,-0.53,-0.53,-0.53,-0.53,0,0,0,0,0,0,0,-0.5434,-0.5432,-0.5411,-0.5399,-0.5396,-0.5384,-0.5379,-0.5383,-0.5349,-0.5356,-0.5352,-0.5349,-0.5322,-0.5318,-0.5317,-0.5323,-0.53,-0.53,-0.53,-0.53,-0.5351,-0.5352,0,0,0,0,0,0,-0.544,-0.5433,-0.5413,-0.541,-0.541,-0.5384,-0.5379,-0.5376,-0.5349,-0.5343,-0.535,-0.5346,-0.5319,-0.5317,-0.5315,-0.5345,-0.53,-0.53,-0.53,-0.535,-0.5351,-0.5353,0,0,0,0,0,0,-0.5441,-0.5439,-0.5414,-0.5421,-0.5417,-0.5385,-0.5383,-0.5376,-0.5373,-0.5344,-0.5338,-0.5352,-0.5318,-0.5315,-0.5324,-0.5343,-0.53,-0.53,-0.5348,-0.535,-0.5352,-0.5404,0,0,0,0,0,0,-0.5442,-0.5439,-0.5448,-0.5421,-0.5417,-0.5423,-0.5384,-0.5377,-0.5372,-0.5368,-0.5345,-0.5339,-0.5317,-0.5325,-0.5324,-0.5342,-0.5299,-0.5346,-0.5349,-0.5351,-0.5401,-0.5408,-0.5414,0,0,0,0,0,-0.5443,-0.5465,-0.5449,-0.5447,-0.5427,-0.5424,-0.5421,-0.5394,-0.5374,-0.5383,-0.5365,-0.534,-0.5341,-0.5326,-0.5325,-0.5343,-0.5345,-0.5348,-0.5351,-0.5398,-0.5406,-0.5414,0,0,0,0,0,0,-0.5495,-0.5461,-0.5443,-0.5456,-0.5443,-0.5415,-0.5426,-0.5404,-0.5397,-0.5393,-0.536,-0.5355,-0.5368,-0.5356,-0.534,-0.5368,-0.5339,-0.5342,-0.5375,-0.5383,-0.5389,-0.5392,-0.5299,0,0,0,0,0,-0.5508,-0.5508,-0.5478,-0.5493,-0.5487,-0.5458,-0.5455,-0.5435,-0.5421,-0.5416,-0.5398,-0.5386,-0.5383,-0.5382,-0.5378,-0.5399,-0.5393,-0.5411,-0.5417,-0.5423,-0.5426,-0.5437,-0.5445,-0.5363,-0.5363,-0.5363,0,0,-0.5536,-0.5516,-0.5518,-0.5503,-0.549,-0.5492,-0.5454,-0.5456,-0.5457,-0.5416,-0.5423,-0.541,-0.5394,-0.5409,-0.5415,-0.54,-0.5448,-0.5427,-0.5432,-0.5432,-0.5441,-0.5449,-0.5456,-0.5366,-0.5365,-0.5365,0,0,-0.5586,-0.5571,-0.5582,-0.557,-0.5552,-0.5532,-0.5535,-0.551,-0.5499,-0.5506,-0.5475,-0.5476,-0.5473,-0.5463,-0.5458,-0.5505,-0.5482,-0.5504,-0.554,-0.555,-0.5557,-0.5562,-0.558,-0.5587,-0.5508,-0.5508,-0.5508,0,-0.5622,-0.5622,-0.5591,-0.5595,-0.559,-0.5552,-0.5563,-0.5554,-0.5536,-0.5533,-0.5517,-0.5511,-0.5498,-0.5511,-0.5522,-0.5519,-0.5522,-0.5507,-0.5558,-0.5564,-0.5568,-0.5585,-0.5592,-0.5511,-0.551,-0.551,-0.551,0,-0.5668,-0.5668,-0.5679,-0.5662,-0.5658,-0.5666,-0.5637,-0.5637,-0.5617,-0.56,-0.5608,-0.559,-0.5583,-0.5584,-0.5565,-0.5594,-0.5586,-0.5564,-0.5535,-0.5579,-0.5595,-0.5601,-0.5515,-0.5514,-0.5513,-0.5512,0,0,-0.575,-0.5715,-0.572,-0.5712,-0.5689,-0.5689,-0.5696,-0.5688,-0.5689,-0.5677,-0.5683,-0.5681,-0.5661,-0.5655,-0.5635,-0.5644,-0.5684,-0.5622,-0.5621,-0.5635,-0.5716,-0.5733,-0.5741,-0.5669,-0.567,-0.5671,-0.5718,0,-0.5797,-0.5805,-0.5778,-0.5794,-0.5795,-0.5759,-0.5765,-0.5753,-0.5737,-0.5736,-0.5719,-0.5718,-0.5691,-0.5687,-0.5695,-0.5678,-0.57,-0.5674,-0.5675,-0.5675,-0.5681,-0.5749,-0.5766,-0.5812,-0.5724,-0.5725,-0.5725,0,-0.5852,-0.5843,-0.5859,-0.5836,-0.5835,-0.5841,-0.5831,-0.583,-0.5816,-0.5804,-0.5797,-0.5773,-0.578,-0.5751,-0.5761,-0.5743,-0.5742,-0.5734,-0.5735,-0.5735,-0.5704,-0.5751,-0.5826,-0.5833,-0.5734,-0.5733,-0.5733,0,-0.5912,-0.5903,-0.5912,-0.5906,-0.5879,-0.5884,-0.5873,-0.5857,-0.5854,-0.5846,-0.5844,-0.5837,-0.5834,-0.583,-0.5805,-0.5787,-0.5818,-0.5787,-0.5809,-0.581,-0.5818,-0.5818,-0.5894,-0.5816,-0.5816,-0.5816,-0.5816,0,-0.5967,-0.5978,-0.5939,-0.5944,-0.5957,-0.5925,-0.5939,-0.5925,-0.591,-0.5914,-0.5882,-0.5886,-0.5853,-0.5854,-0.5835,-0.5846,-0.5844,-0.5836,-0.5831,-0.5839,-0.584,-0.5838,-0.5835,-0.5817,-0.5817,-0.5817,-0.5816,0,-0.6036,-0.6009,-0.6017,-0.599,-0.5984,-0.5994,-0.5972,-0.5977,-0.5958,-0.5963,-0.5962,-0.5935,-0.5934,-0.5909,-0.5903,-0.589,-0.5909,-0.5898,-0.5914,-0.5911,-0.5934,-0.5933,-0.6013,-0.6022,-0.5938,-0.5938,-0.5939,0,-0.6073,-0.6081,-0.6055,-0.6054,-0.6044,-0.6044,-0.604,-0.601,-0.6008,-0.5992,-0.5999,-0.5995,-0.5991,-0.5991,-0.5971,-0.5967,-0.5956,-0.5984,-0.5955,-0.5964,-0.5958,-0.5958,-0.5959,-0.5991,-0.5992,-0.5993,-0.5993,0,-0.6142,-0.6129,-0.6125,-0.6116,-0.6113,-0.6105,-0.6095,-0.6096,-0.6063,-0.6063,-0.6061,-0.6057,-0.6051,-0.6048,-0.604,-0.603,-0.6007,-0.6003,-0.6008,-0.6017,-0.6026,-0.6022,-0.5932,-0.6001,-0.6,-0.6,-0.5999,-0.5999,-0.6197,-0.6203,-0.6186,-0.6182,-0.6171,-0.6163,-0.6166,-0.6148,-0.6146,-0.6138,-0.612,-0.6121,-0.6107,-0.6094,-0.6086,-0.6087,-0.6073,-0.608,-0.6082,-0.6084,-0.6089,-0.6025,-0.6085,-0.6085,-0.6085,-0.6085,-0.6084,0,-0.6266,-0.6253,-0.625,-0.6236,-0.6234,-0.6211,-0.6199,-0.6199,-0.62,-0.6188,-0.6184,-0.6183,-0.618,-0.616,-0.6155,-0.616,-0.615,-0.616,-0.616,-0.6158,-0.6102,-0.6098,-0.6169,-0.6169,-0.6169,-0.6169,-0.6169,-0.6169,-0.6301,-0.631,-0.6295,-0.6298,-0.6285,-0.6285,-0.6281,-0.6273,-0.6263,-0.6263,-0.626,-0.6246,-0.6232,-0.6226,-0.6223,-0.6217,-0.6217,-0.6231,-0.6222,-0.617,-0.6162,-0.6154,-0.6151,-0.6231,-0.6231,-0.6278,-0.6279,-0.6279]},{"header":{"parameterUnit":"m.s-1","parameterCategory":1,"la1":30.2991,"la2":30.254,"lo1":-89.0895,"lo2":-89.0444,"dy":0.0017,"dx":0.0017,"nx":28,"ny":28,"refTime":"2025-09-12T03:00:00:Z","depth":0,"parameterNumber":3,"parameterNumberName":"V-component_of_WINDS"},"data":[0,0,0,0,0,0,0,0,0,0,0,0,0,0,0,0,0,0,0,0,0,0,0,0,0,0,0,0,0,0,0,0,0,0,0,0,0,0,0,0,0,0,0,0,0,0,0,0,0,0,0,0,0,0,0,0,0,0,2.333,2.333,0,2.3325,2.3325,2.3325,2.3337,2.3337,2.3338,2.3338,2.3329,2.3328,2.3328,0,0,0,0,0,0,0,0,0,0,0,0,0,2.3348,2.3347,2.333,2.333,2.333,2.3325,2.3325,2.3325,2.3337,2.3337,2.3338,2.3338,2.3329,2.3328,2.3328,0,0,0,0,0,0,0,0,0,0,0,0,0,2.3341,2.3347,2.333,2.3335,2.3336,2.3325,2.3325,2.3325,2.3337,2.3337,2.3338,2.3338,2.3329,2.3328,2.3328,2.331,0,0,2.3325,2.3324,0,0,0,0,0,0,0,0,2.3341,2.334,2.3335,2.3335,2.3336,2.3332,2.3328,2.332,2.3337,2.3336,2.3338,2.3339,2.3329,2.3328,2.3326,2.3309,2.3309,2.3325,2.3324,2.3324,2.3323,0,0,0,0,0,0,0,2.3342,2.3341,2.3328,2.3335,2.3335,2.3337,2.3337,2.3326,2.3329,2.3336,2.3337,2.3337,2.333,2.3327,2.3326,2.3309,2.3325,2.3324,2.3323,2.3323,2.3278,2.3278,0,0,0,0,0,0,2.3342,2.3341,2.3328,2.3328,2.334,2.3336,2.3336,2.3333,2.333,2.333,2.3336,2.3337,2.3328,2.3327,2.3326,2.3305,2.3324,2.3323,2.3322,2.3279,2.3278,2.3277,0,0,0,0,0,0,2.3342,2.3341,2.3328,2.3335,2.3333,2.3336,2.3331,2.3332,2.3329,2.3329,2.333,2.3333,2.3329,2.3327,2.3314,2.3305,2.3322,2.3322,2.328,2.3279,2.3278,2.3263,0,0,0,0,0,0,2.3343,2.3341,2.3335,2.3334,2.3333,2.3318,2.3331,2.3332,2.3328,2.333,2.3326,2.3326,2.3329,2.3315,2.3313,2.3304,2.3321,2.328,2.3279,2.3278,2.3264,2.3262,2.326,0,0,0,0,0,2.3343,2.333,2.3334,2.3333,2.3325,2.3317,2.3316,2.332,2.3328,2.3321,2.3321,2.3327,2.3306,2.3314,2.3312,2.3302,2.3281,2.3279,2.3278,2.3265,2.3262,2.326,0,0,0,0,0,0,2.3327,2.333,2.3335,2.3321,2.3319,2.3319,2.3311,2.3316,2.3311,2.3312,2.3317,2.3316,2.3302,2.3301,2.3309,2.3285,2.3295,2.3293,2.3286,2.3283,2.3281,2.3281,2.332,0,0,0,0,0,2.3323,2.3317,2.3319,2.3306,2.3305,2.3308,2.3305,2.3308,2.3306,2.3305,2.3304,2.33,2.3293,2.3288,2.3281,2.3265,2.3264,2.3257,2.3254,2.3252,2.325,2.3241,2.3238,2.3273,2.3273,2.3273,0,0,2.3312,2.3312,2.3308,2.3303,2.3302,2.3295,2.3307,2.3299,2.3294,2.3303,2.3291,2.329,2.3287,2.3272,2.3265,2.327,2.3241,2.3251,2.3249,2.3248,2.324,2.3236,2.3233,2.3272,2.3272,2.3272,0,0,2.3288,2.3289,2.3278,2.3277,2.3276,2.3279,2.3276,2.3276,2.3276,2.3265,2.3272,2.3265,2.3253,2.325,2.3247,2.3224,2.3229,2.3222,2.3209,2.32,2.3197,2.3195,2.3186,2.3183,2.322,2.322,2.322,0,2.3275,2.3265,2.3272,2.3264,2.3261,2.3271,2.3261,2.3259,2.3255,2.3252,2.3259,2.3244,2.3242,2.3227,2.3222,2.3219,2.3216,2.3222,2.3198,2.3195,2.3193,2.3185,2.3182,2.3219,2.3219,2.322,2.322,0,2.3249,2.3242,2.3234,2.3231,2.3228,2.3218,2.3223,2.3219,2.3223,2.3225,2.3213,2.3212,2.3205,2.3202,2.3205,2.3187,2.3191,2.3197,2.3207,2.3189,2.3181,2.3178,2.3218,2.3218,2.3219,2.3219,0,0,2.3213,2.3216,2.3213,2.3212,2.3212,2.3207,2.3198,2.3193,2.3189,2.3186,2.3178,2.3168,2.3175,2.3171,2.3175,2.3167,2.3149,2.3175,2.3175,2.317,2.3129,2.3124,2.312,2.3153,2.3153,2.3152,2.3129,0,2.319,2.3176,2.3182,2.3167,2.3161,2.3171,2.3163,2.3161,2.3163,2.3158,2.3159,2.3152,2.3161,2.3159,2.3152,2.3153,2.3141,2.3155,2.3145,2.3144,2.3144,2.3116,2.311,2.3088,2.3126,2.3126,2.3126,0,2.3161,2.3158,2.3143,2.3145,2.3142,2.3135,2.3131,2.3126,2.3125,2.3127,2.3124,2.3129,2.312,2.3131,2.3118,2.3127,2.3124,2.3123,2.3123,2.3121,2.3133,2.3113,2.3082,2.3078,2.3121,2.3121,2.3122,0,2.3136,2.3129,2.3119,2.3118,2.312,2.3115,2.3115,2.3115,2.3111,2.3108,2.3106,2.3101,2.3098,2.3094,2.3098,2.3106,2.3084,2.3096,2.3085,2.3084,2.3078,2.3078,2.3045,2.3078,2.3078,2.3078,2.3078,0,2.3109,2.3099,2.3108,2.3101,2.309,2.3098,2.3086,2.3088,2.3088,2.3081,2.309,2.3083,2.3089,2.3083,2.3086,2.3075,2.3073,2.3074,2.3074,2.3072,2.3072,2.3069,2.307,2.3077,2.3077,2.3077,2.3077,0,2.3079,2.3085,2.3074,2.3078,2.3078,2.307,2.3072,2.3066,2.3069,2.3061,2.3059,2.3064,2.3057,2.3061,2.3054,2.3056,2.3041,2.3044,2.3042,2.3042,2.3031,2.3031,2.2993,2.2989,2.3025,2.3025,2.3024,0,2.306,2.3053,2.3056,2.3053,2.3053,2.3048,2.3046,2.3053,2.305,2.3049,2.3042,2.3037,2.3033,2.3022,2.3024,2.3019,2.3021,2.3008,2.302,2.3019,2.302,2.302,2.3019,2.3005,2.3005,2.3005,2.3004,0,2.3027,2.3031,2.3027,2.3025,2.3022,2.302,2.3019,2.3016,2.3023,2.3019,2.3013,2.301,2.3004,2.2999,2.2994,2.2994,2.3,2.3001,2.2998,2.2995,2.2994,2.2994,2.3034,2.3001,2.3002,2.3002,2.3002,2.3002,2.3002,2.2996,2.2998,2.2994,2.2994,2.2993,2.2987,2.2991,2.2986,2.2982,2.2987,2.298,2.2979,2.2975,2.2974,2.2968,2.2973,2.2969,2.2967,2.2966,2.2964,2.2996,2.2967,2.2967,2.2967,2.2967,2.2968,0,2.2969,2.2971,2.2967,2.2966,2.2962,2.2971,2.297,2.2966,2.296,2.296,2.2957,2.295,2.2945,2.2947,2.2942,2.2937,2.294,2.2936,2.2935,2.2935,2.296,2.2963,2.2934,2.2934,2.2934,2.2934,2.2934,2.2934,2.2951,2.2941,2.2945,2.2936,2.2938,2.2932,2.2931,2.293,2.293,2.2923,2.2919,2.2921,2.2922,2.2917,2.2913,2.2914,2.2911,2.2906,2.2907,2.293,2.2933,2.2937,2.2939,2.2905,2.2905,2.2883,2.2882,2.2882]}]]